Lapse_Rate
5.9 5.9 6.1 6.1 6.2 6.3 6.3 6.3 6.4 6.4 6.4 6.4 6.5 6.5 6.5 6.7 6.7 6.7 6.8 6.7 6.6 6.7 7.1 6.9 6.8 6.9 7.0 7.5 7.6 8.1 8.1 8.1 8.1 8.3 8.6 8.5 8.3 8.4 8.7 9.1 9.1 9.1 9.3 9.0 9.1 8.6 7.9
5.7 5.8 5.8 6.0 6.1 6.2 6.1 6.3 6.4 6.4 6.5 6.4 6.5 6.5 6.5 6.7 6.7 6.7 6.8 6.7 6.7 6.8 7.1 7.0 6.8 6.9 7.0 7.4 7.6 8.3 8.0 8.1 8.2 8.5 8.5 8.5 8.6 8.6 8.7 8.8 9.2 9.4 9.1 8.4 8.6 8.1 7.8
5.6 5.7 5.7 5.9 6.0 6.1 6.0 6.1 6.3 6.4 6.4 6.5 6.5 6.4 6.5 6.7 6.7 6.7 6.7 6.7 6.7 6.8 7.0 6.9 6.8 7.1 7.1 7.3 7.6 8.1 8.2 7.9 8.1 8.3 8.4 8.3 8.3 8.3 8.6 8.8 9.3 9.3 9.0 9.0 8.7 8.4 7.8
5.6 5.7 5.7 5.8 5.9 6.0 6.0 6.0 6.1 6.2 6.3 6.4 6.5 6.3 6.4 6.6 6.8 6.6 6.7 6.7 6.7 6.8 7.1 6.9 6.8 7.1 7.3 7.7 8.0 8.2 8.3 8.0 8.1 8.2 8.0 7.9 8.0 8.2 8.2 8.4 8.6 9.1 9.2 9.0 9.1 8.1 8.2
5.6 5.6 5.8 5.8 5.9 6.0 6.1 6.2 6.0 6.1 6.2 6.3 6.4 6.2 6.3 6.5 6.6 6.6 6.7 6.6 6.6 6.8 7.1 6.9 6.9 7.1 7.4 7.9 8.1 8.0 8.2 7.9 8.0 8.2 8.2 8.0 8.1 8.1 8.4 8.5 8.6 9.0 9.1 9.2 9.0 8.7 8.5
5.8 5.8 5.8 5.9 5.8 6.0 6.1 6.2 6.2 6.1 6.1 6.1 6.3 6.2 6.1 6.3 6.5 6.6 6.7 6.5 6.3 6.8 7.1 6.9 6.9 7.2 7.6 7.7 8.0 8.0 8.3 8.2 8.2 8.2 8.3 8.3 8.3 8.4 8.5 8.4 8.6 8.5 8.8 8.9 9.2 9.0 9.0
5.9 6.0 6.0 5.9 6.0 6.0 6.2 6.3 6.2 6.2 6.2 6.1 6.1 6.2 6.1 6.2 6.4 6.5 6.6 6.3 6.1 6.8 7.2 6.9 6.9 7.1 7.2 7.6 7.9 8.1 8.2 8.2 8.2 8.1 8.1 8.0 8.3 8.4 8.3 8.8 8.8 8.7 8.6 8.8 9.1 9.2 9.2
6.1 6.0 6.1 6.1 6.1 6.2 6.2 6.2 6.2 6.2 6.2 6.3 6.3 6.2 6.1 6.2 6.3 6.5 6.4 6.0 6.3 7.0 7.4 7.0 7.2 7.2 7.5 7.6 7.9 8.2 8.2 8.5 8.5 8.1 8.3 8.3 7.9 8.3 8.1 8.5 8.3 8.5 8.3 8.9 9.0 9.6 9.3
6.1 6.2 6.2 6.2 6.3 6.2 6.3 6.4 6.3 6.5 6.3 6.2 6.3 6.5 6.3 6.3 6.4 6.4 6.4 6.0 6.0 6.2 6.7 7.2 7.4 7.5 7.6 7.7 8.0 8.3 8.2 8.8 8.6 8.5 8.7 8.3 8.0 7.9 8.1 8.2 8.2 8.3 8.5 8.8 9.0 9.4 9.3
6.1 6.2 6.3 6.4 6.3 6.5 6.5 6.5 6.6 6.6 6.5 6.3 6.4 6.5 6.4 6.2 6.4 6.4 5.9 6.1 6.1 6.3 6.4 7.3 7.5 7.6 7.6 7.7 8.1 8.3 8.3 9.3 8.5 8.6 8.0 8.4 8.3 8.0 8.2 8.2 8.4 8.5 8.9 8.9 8.8 9.1 9.3
6.1 6.2 6.2 6.3 6.5 6.6 6.8 6.9 6.7 6.7 7.0 6.6 6.5 6.7 6.5 6.1 6.3 6.1 6.2 6.4 6.1 6.1 5.3 7.3 7.4 7.6 7.9 8.1 8.4 8.4 8.8 9.1 8.7 8.6 8.5 8.5 8.0 8.0 8.3 8.4 8.3 8.8 8.8 9.0 9.1 9.1 9.3
6.2 6.2 6.3 6.2 6.3 6.5 6.7 6.8 6.9 6.8 7.1 7.0 6.8 6.5 6.4 6.1 6.4 5.9 6.2 6.2 6.1 5.8 6.0 7.2 7.2 7.4 7.5 8.0 8.2 8.6 9.1 9.3 8.9 8.5 8.2 8.1 8.4 8.1 8.3 8.4 8.8 8.7 9.0 9.1 9.1 8.7 8.1
6.6 6.5 6.1 6.2 6.3 6.4 6.6 6.7 6.9 6.8 6.9 7.0 6.7 6.5 6.6 6.2 6.4 5.5 5.8 5.7 5.8 5.6 7.7 7.6 7.3 7.5 7.7 7.9 8.2 8.5 8.8 9.0 8.5 8.7 8.7 8.5 8.4 8.6 8.4 8.8 8.7 8.5 8.8 8.4 7.7 7.3 6.6
5.1 6.3 6.7 6.4 6.3 6.4 6.6 6.5 6.8 6.8 6.6 6.9 6.7 7.1 6.7 6.5 5.9 5.7 6.0 5.6 5.4 6.7 7.9 8.3 7.7 7.6 7.9 8.2 8.3 8.6 8.8 8.8 8.6 8.8 8.8 8.6 7.6 8.2 8.5 8.4 8.3 8.8 8.8 8.3 7.0 6.3 6.7
2.1 3.6 5.9 6.4 6.4 6.5 6.6 6.8 6.7 6.9 6.5 6.6 6.4 6.8 7.2 6.5 6.2 6.4 6.0 5.1 5.3 7.4 8.1 8.3 8.2 7.9 8.1 8.3 8.4 8.8 8.7 8.8 8.7 8.8 8.5 8.5 8.4 8.0 8.6 8.9 8.8 9.1 8.9 8.8 8.4 7.7 7.1
2.1 2.0 2.9 5.6 5.9 6.5 6.6 6.7 6.8 6.9 6.7 6.7 6.1 6.0 6.8 6.4 6.1 6.4 5.7 4.5 5.5 8.1 7.8 7.9 8.2 8.2 8.4 8.5 8.7 9.1 8.7 8.8 8.6 8.9 9.0 8.3 8.2 8.5 8.8 8.5 8.9 9.2 9.1 9.0 8.9 7.3 7.1
2.5 2.0 1.8 2.5 4.3 5.7 6.3 6.5 6.7 6.7 6.7 6.7 6.1 4.9 6.6 5.9 5.6 5.7 5.1 4.4 6.3 8.1 7.7 7.5 8.2 8.4 8.7 8.8 9.0 9.2 8.9 8.9 9.2 9.3 9.4 9.1 8.5 8.1 7.7 8.4 8.8 8.8 8.8 8.8 8.8 8.7 6.5
3.7 2.7 1.9 1.5 2.1 2.5 4.4 5.7 6.4 6.5 6.5 6.4 5.9 4.7 5.6 5.8 5.5 5.6 4.6 4.4 6.9 7.7 7.9 7.5 7.6 8.4 8.7 8.9 9.3 9.1 9.0 8.8 9.4 8.9 8.9 8.7 8.7 8.0 8.4 8.2 8.9 8.9 8.6 8.4 8.5 8.5 8.4
4.2 3.8 2.8 2.6 2.1 2.1 2.5 3.5 4.3 6.1 6.1 6.1 5.4 4.5 5.1 6.0 5.6 5.4 4.8 5.5 7.1 7.5 7.6 7.3 7.7 8.3 8.6 9.0 8.4 8.7 9.2 9.0 9.0 9.1 8.6 8.7 8.4 8.1 8.2 8.5 8.7 8.8 8.7 8.7 8.6 8.3 8.4
4.0 3.9 3.8 3.6 3.6 2.9 2.7 2.7 2.9 3.9 5.5 5.4 4.6 5.1 5.1 5.8 5.5 5.2 5.3 5.9 6.7 7.5 7.6 7.3 7.6 8.4 8.5 8.5 9.1 8.9 9.1 8.4 8.5 8.6 8.5 8.4 8.4 8.4 8.3 8.7 8.6 8.6 8.6 8.7 8.7 8.4 8.3
4.7 3.8 4.1 4.4 4.0 3.5 2.8 3.3 2.8 3.4 4.0 4.7 4.8 4.6 5.1 5.3 5.2 4.3 4.8 6.2 6.7 7.1 7.2 7.3 7.4 8.1 8.4 8.3 9.1 8.8 8.6 8.3 8.0 8.0 8.2 8.2 8.2 8.1 8.4 8.4 8.1 8.3 8.5 8.4 8.5 8.6 8.3
5.1 4.2 4.3 4.7 4.5 4.2 3.7 3.5 3.1 3.6 4.1 5.2 4.9 4.5 4.7 5.2 4.9 4.7 4.7 5.9 6.6 7.4 7.4 7.6 7.4 8.1 8.3 8.4 8.6 8.5 8.4 8.3 8.1 8.1 8.0 7.9 7.9 8.0 7.8 8.1 8.1 7.9 8.1 8.3 8.4 8.7 8.7
5.5 4.7 4.5 4.9 4.9 4.6 4.4 4.4 3.5 3.9 4.4 4.8 4.7 4.5 4.6 5.4 5.4 5.2 4.7 6.6 6.5 7.2 7.5 7.6 8.0 8.1 8.4 8.3 8.5 8.6 8.4 8.2 7.8 7.9 7.7 7.6 7.6 7.5 7.5 7.8 7.8 7.7 8.2 8.3 8.3 8.6 8.5
5.8 4.8 4.8 4.9 5.1 5.1 4.7 4.9 4.1 4.2 4.6 4.5 4.6 5.0 4.9 5.3 5.3 5.5 5.5 6.8 6.6 7.2 7.3 7.8 8.1 8.3 8.2 8.1 8.4 8.3 8.1 7.8 7.6 7.4 7.7 7.5 7.4 7.2 7.3 7.4 5.6 7.9 7.8 8.1 8.1 8.0 8.0
5.3 5.2 5.3 5.5 5.4 5.2 4.9 4.9 5.1 4.7 5.3 4.7 5.3 4.9 5.3 5.5 5.4 5.7 5.9 6.7 7.2 7.5 7.5 7.7 8.2 8.4 8.3 8.1 8.2 8.0 7.7 7.3 6.8 6.9 7.4 7.3 7.5 7.3 7.1 7.1 7.5 7.7 7.6 8.1 8.1 7.5 7.6
5.6 5.7 6.0 5.9 5.6 5.7 5.7 5.6 5.3 5.4 5.3 4.9 5.7 5.0 6.3 6.1 5.3 6.0 6.7 6.8 7.5 7.6 7.6 7.4 7.8 8.2 8.3 8.1 7.9 7.8 7.5 7.6 7.2 7.3 7.5 7.2 7.3 7.3 6.9 6.9 5.0 7.5 7.6 7.7 7.7 7.2 7.1
6.2 6.4 6.5 6.4 6.4 6.2 6.3 6.0 5.4 5.7 5.2 4.9 5.7 5.2 5.7 6.1 6.2 6.5 6.8 6.8 7.4 7.4 7.2 7.3 7.0 7.5 7.9 7.6 7.8 7.6 7.4 7.6 7.2 7.2 7.3 7.0 6.7 6.9 7.0 7.1 7.2 6.9 7.4 7.5 7.4 6.5 6.5
6.5 6.8 6.6 6.8 7.5 7.5 7.0 6.5 5.4 5.7 5.0 5.8 6.0 5.8 5.7 5.8 6.8 6.9 6.9 7.8 7.8 7.0 6.9 7.4 7.3 6.9 7.8 7.8 7.8 7.3 7.3 7.6 7.3 7.4 7.4 7.1 6.8 6.6 6.4 6.5 6.6 6.8 6.7 6.8 6.8 6.4 6.4
6.8 6.9 7.1 7.5 7.7 7.7 7.6 6.5 5.4 5.5 6.3 6.6 7.2 6.4 6.7 5.9 6.8 6.9 6.9 7.3 7.1 7.2 7.2 6.9 6.7 7.3 8.1 7.9 7.5 7.5 7.3 7.5 7.5 7.2 7.2 7.2 7.1 7.2 7.1 7.0 6.8 6.5 6.4 6.3 6.6 6.7 6.4
Wind_Speed
16 14 13 11 11 11 16 17 16 14 12 12 11 12 14 14 15 15 16 16 14 14 16 14 13 14 7 4 8 2 7 8 8 4 6 9 8 7 7 5 7 8 9 9 7 8 7
17 16 15 14 13 12 14 18 17 15 13 12 11 12 14 15 16 16 16 16 14 14 16 12 11 15 2 5 4 13 12 6 6 6 7 10 9 8 8 8 5 8 6 12 10 16 6
19 18 16 14 15 15 16 16 19 17 14 13 13 12 13 15 15 17 17 17 14 14 14 10 9 7 4 15 7 6 7 8 7 8 8 10 8 4 7 10 12 7 2 6 10 10 3
20 19 18 17 15 16 16 16 16 18 16 15 14 13 13 14 15 17 18 18 15 14 13 8 7 5 7 7 14 9 6 8 11 11 10 10 7 5 3 7 9 4 4 3 4 11 8
22 21 19 19 17 16 17 17 16 17 16 16 15 13 12 13 14 16 18 17 14 13 9 7 3 3 9 13 3 7 8 10 11 8 5 5 4 2 7 4 5 4 2 1 4 15 9
26 23 22 21 20 17 17 17 16 15 17 16 15 14 12 12 13 15 17 15 9 7 6 6 7 5 8 5 5 7 10 12 3 4 2 1 2 3 4 2 3 2 3 6 8 10 6
27 26 24 22 20 19 16 14 13 12 16 17 16 13 11 11 11 12 9 4 2 1 3 8 5 6 9 10 6 4 5 4 4 4 2 6 3 0 4 3 4 1 6 11 5 8 7
29 28 25 24 23 21 18 16 14 12 13 16 16 13 10 8 8 4 3 4 6 2 8 15 20 17 19 7 4 6 5 5 5 3 2 6 7 7 9 7 5 7 14 7 8 4 6
30 27 26 26 25 24 22 18 17 14 13 15 15 13 9 4 2 1 6 10 9 12 3 9 14 8 8 8 5 12 10 5 10 5 7 4 7 10 6 6 12 14 5 14 6 3 2
30 30 29 26 25 26 24 21 18 16 14 15 16 13 9 7 2 3 5 9 18 3 3 6 10 6 7 9 7 10 8 9 2 6 7 5 4 8 9 9 11 8 4 5 9 2 3
32 30 29 26 25 25 24 22 20 17 16 15 17 15 14 17 4 3 6 18 8 2 3 6 10 6 8 8 2 6 7 7 8 8 5 7 2 5 4 11 3 7 6 5 5 4 4
33 30 29 30 27 25 24 24 22 19 17 15 18 17 14 4 2 10 22 16 2 1 7 4 9 8 8 8 9 5 5 1 3 7 1 5 4 6 5 8 4 8 3 4 6 3 2
32 30 31 26 29 26 26 26 23 19 18 16 19 21 15 9 4 7 8 3 2 4 6 7 14 8 11 8 8 5 6 5 4 4 5 4 8 4 3 6 10 4 4 3 5 5 5
34 31 29 27 27 28 27 27 25 21 19 17 18 20 11 10 9 13 3 2 8 12 11 3 10 10 10 8 9 8 6 7 9 6 4 6 7 2 3 10 3 4 5 4 5 2 4
34 32 30 28 28 29 29 28 26 23 20 18 15 5 3 6 16 2 2 10 8 7 10 4 8 9 8 11 7 9 8 7 11 12 7 3 1 3 9 6 2 1 3 5 6 4 4
36 31 30 27 28 29 30 31 31 26 22 21 4 4 5 12 13 3 5 14 7 17 9 6 8 8 8 11 7 7 9 7 7 14 8 4 3 3 12 10 9 4 3 4 3 4 4
34 31 30 29 29 30 31 30 31 27 24 26 4 4 7 18 4 4 13 12 16 21 12 8 6 7 7 7 9 6 6 9 9 5 10 6 4 5 5 6 10 1 2 3 3 4 4
31 31 29 28 30 33 28 26 33 30 27 18 4 6 10 13 6 5 15 17 13 20 17 10 4 1 7 7 7 9 8 2 5 10 9 8 5 4 18 17 9 5 5 2 4 4 2
30 29 28 28 28 34 26 20 31 33 34 8 5 4 8 14 12 12 7 18 22 20 20 7 3 3 3 7 7 10 5 5 7 5 6 3 2 3 3 3 4 3 4 4 3 3 4
29 27 26 25 30 32 28 24 26 33 37 9 4 6 6 10 8 18 17 17 22 14 21 18 8 7 5 5 3 7 3 2 4 4 2 4 1 6 6 6 2 5 5 5 5 4 3
30 26 25 24 31 31 31 30 26 31 36 9 5 8 8 12 18 13 18 13 19 17 16 9 8 9 7 5 3 5 4 3 3 0 2 4 4 1 5 5 3 4 5 6 4 6 7
31 29 27 26 29 32 33 31 30 31 34 12 3 6 6 4 16 15 20 21 24 19 17 16 13 10 8 6 7 7 8 5 6 2 5 1 2 3 2 6 7 3 5 8 6 5 1
30 29 28 29 31 31 32 30 32 29 31 5 6 5 5 8 18 17 21 23 22 15 12 15 9 7 8 6 6 5 6 7 8 8 6 6 4 3 2 4 6 6 6 6 6 4 3
30 30 29 28 29 30 32 32 33 30 35 2 8 3 4 9 14 20 21 22 21 24 14 13 9 7 3 11 9 8 12 10 11 8 3 6 5 3 3 3 1 9 1 5 6 6 8
28 27 27 28 28 31 30 32 33 33 37 10 3 4 2 3 16 15 22 24 20 15 19 6 2 8 11 6 4 4 5 6 0 3 4 4 5 2 4 4 5 6 2 2 4 4 6
23 23 25 26 27 27 28 31 32 34 28 7 11 4 3 4 11 21 25 19 13 10 2 1 7 4 5 4 3 5 4 6 4 2 8 7 5 5 2 4 6 6 3 4 3 2 4
19 19 21 24 29 29 30 29 32 29 25 7 4 9 3 4 5 8 18 23 13 5 5 2 4 5 3 3 3 3 2 7 5 8 4 3 3 5 2 2 7 5 5 0 6 5 4
22 20 17 22 21 19 23 26 25 24 27 12 8 9 4 4 6 4 11 12 6 7 7 6 4 5 1 3 4 3 3 5 4 8 7 6 6 3 4 3 5 6 3 6 6 3 7
17 18 17 17 23 25 23 23 25 26 23 16 6 8 6 2 5 12 5 4 5 12 9 2 9 6 6 4 3 4 2 2 3 2 3 2 6 6 7 6 6 4 9 6 9 7 5
Wind_Direction
286 288 285 285 291 297 271 253 255 257 261 271 282 291 298 302 303 304 305 312 313 312 305 312 319 323 338 259 251 239 107 118 132 174 220 234 251 251 251 256 272 244 254 109 191 134 72
275 279 285 284 283 285 292 263 252 255 258 265 274 283 293 299 301 304 303 301 305 307 301 309 320 321 247 274 272 142 119 122 170 189 227 243 252 257 264 263 278 230 217 122 108 109 109
264 268 271 278 281 274 276 282 252 252 254 258 264 273 284 295 300 304 305 296 298 301 298 305 316 301 266 244 283 333 149 174 190 196 241 262 256 3 342 331 320 311 57 149 134 114 78
256 258 263 266 272 278 271 276 271 253 251 255 259 268 279 290 299 305 304 300 298 294 290 298 309 292 255 255 267 259 236 232 208 207 222 270 350 349 11 304 336 357 4 116 246 115 176
250 251 254 257 263 268 273 267 273 260 249 251 255 264 276 287 296 302 303 299 295 284 270 284 271 223 264 313 217 242 255 232 195 217 257 285 34 282 313 293 341 345 228 208 234 145 154
253 249 246 248 254 257 269 260 268 264 250 249 251 258 271 282 294 304 306 291 291 297 244 232 256 313 266 223 220 229 239 240 154 172 241 263 268 259 299 87 229 286 26 287 215 166 143
250 251 245 243 246 250 256 251 262 267 250 247 247 250 265 280 298 312 332 313 331 165 249 210 205 244 309 306 184 218 238 195 202 111 203 334 359 92 294 356 124 43 285 266 266 237 137
247 248 247 241 239 245 248 252 256 263 253 245 244 245 256 277 301 312 309 258 245 19 293 237 247 246 266 287 291 259 183 179 182 101 347 26 4 281 21 336 308 300 267 277 307 133 125
242 245 246 242 241 237 246 249 249 252 255 242 238 233 233 256 290 240 232 238 293 7 305 280 224 226 234 218 239 265 158 188 117 111 115 105 274 276 250 269 238 220 282 217 234 296 332
240 238 243 242 239 237 234 242 247 243 245 238 231 219 200 142 89 215 235 248 241 205 343 257 183 233 223 234 238 240 226 165 191 145 139 170 282 322 330 298 254 275 198 304 299 307 213
241 239 235 237 243 236 227 231 240 236 240 237 223 206 185 183 344 300 316 341 169 89 323 216 171 208 186 196 161 249 236 206 164 154 130 221 171 316 315 272 186 243 240 234 278 285 103
235 238 240 233 232 233 228 224 232 231 233 234 216 198 180 210 232 250 298 315 78 99 247 201 158 172 199 199 242 252 156 352 346 145 131 170 150 175 242 264 275 273 298 329 26 44 27
220 235 235 247 229 226 227 222 222 222 229 230 211 186 169 184 217 353 269 323 147 201 279 190 160 179 193 204 225 239 138 200 199 155 165 212 190 246 217 309 293 330 17 1 5 12 245
218 217 239 234 250 226 224 221 212 214 221 224 210 181 212 223 281 356 335 211 218 200 242 24 163 173 184 222 207 242 181 200 239 231 179 184 77 337 337 226 251 265 134 154 172 209 251
222 222 226 233 233 234 220 217 211 209 208 212 188 184 202 227 241 30 253 212 195 230 205 221 169 167 194 224 199 198 203 222 202 228 170 130 49 297 300 347 273 150 332 170 108 6 60
215 214 223 229 227 241 221 211 208 201 196 184 176 177 205 187 174 157 232 221 238 245 304 307 216 172 180 209 219 178 195 217 224 208 130 186 109 354 292 347 284 167 272 31 359 144 238
210 213 216 224 230 227 222 214 200 191 188 171 186 200 168 164 127 204 220 218 242 266 272 251 214 185 205 199 192 194 217 239 209 131 111 138 101 301 44 248 238 187 248 238 148 138 162
204 210 212 215 225 225 217 212 202 182 178 167 195 193 158 152 170 204 220 211 248 257 263 275 259 266 199 223 186 190 226 61 157 148 140 201 134 144 224 244 208 176 193 193 123 262 185
202 207 212 217 226 215 196 215 199 185 180 169 193 163 173 162 197 210 205 222 243 256 258 273 198 211 276 224 121 235 113 342 18 85 150 153 192 140 333 294 299 225 213 221 147 85 179
199 204 205 212 217 203 196 213 207 194 184 186 192 174 163 209 213 191 194 209 224 250 262 259 228 256 271 269 185 201 126 42 35 90 144 109 129 148 188 213 154 330 261 255 151 112 200
196 203 200 205 207 207 196 205 213 202 192 202 198 200 179 192 209 193 188 207 216 227 219 242 242 213 202 222 250 173 99 98 76 138 100 109 164 300 295 309 252 230 299 315 246 203 150
198 201 203 197 206 203 199 194 215 204 196 203 189 199 158 182 180 206 186 212 206 220 236 235 231 209 215 188 196 203 133 156 177 190 153 178 199 120 309 335 14 1 302 306 301 302 228
190 192 193 192 204 201 197 196 204 206 195 181 222 288 194 178 177 192 204 201 210 211 244 236 208 203 199 186 111 120 129 124 155 148 184 141 129 88 245 351 7 345 245 238 247 280 259
183 186 189 194 200 198 198 200 198 209 201 227 205 292 198 197 188 200 194 203 202 224 229 226 196 173 171 115 56 31 49 48 76 349 150 144 116 98 181 39 42 243 243 130 108 64 72
179 186 194 197 197 198 199 200 195 203 202 212 244 220 280 227 190 195 201 196 214 225 227 225 197 159 132 70 87 68 2 30 267 101 65 100 116 96 135 186 288 325 26 129 122 35 52
179 189 190 194 197 197 200 199 195 187 183 195 225 287 265 177 214 185 195 203 210 217 43 342 17 324 107 98 105 145 169 177 177 111 33 56 83 116 130 146 199 237 156 33 70 59 47
174 185 196 198 191 194 186 185 185 184 175 183 230 223 301 279 218 217 193 202 201 117 115 80 87 319 32 114 104 125 224 167 155 156 164 43 11 142 132 184 286 231 145 198 95 219 81
173 174 176 163 166 177 173 177 172 170 177 178 222 233 208 277 292 262 199 196 160 149 142 149 47 279 356 97 116 181 123 228 119 159 167 159 141 187 100 91 282 179 100 130 190 100 81
161 162 161 159 162 165 168 166 168 182 183 179 216 212 252 306 291 318 140 308 201 155 125 122 164 212 198 101 68 88 73 41 117 193 185 129 173 174 163 208 225 114 110 90 94 98 57